FW9268 Weather Reports


Display with metric or nautical units.
time (UTC)temp
F
wind
direction
speed
MPH
gust
MPH
rain 1hr
in
rain 24hr
in
rain mn
in
humidity
%
barometer
mb
20260831184553 83 221 1.0 4.0 0.00 0.05 0.00 79 1020.4
20260831184532 83 218 1.0 5.0 0.00 0.05 0.00 79 1010.7
20260831183047 82 191 2.0 9.0 0.00 0.05 0.00 80 1020.4
20260831183031 82 194 2.0 9.0 0.00 0.05 0.00 81 1010.9
20260831181549 81 176 3.0 8.0 0.00 0.05 0.00 81 1020.4
20260831181529 81 176 2.0 6.0 0.00 0.05 0.00 82 1010.9
20260831180041 81 197 2.0 7.0 0.00 0.05 0.00 83 1020.4
20260831180029 81 197 2.0 6.0 0.00 0.05 0.00 83 1010.9
20260831174554 80 144 3.0 7.0 0.00 0.05 0.00 83 1020.4
20260831174527 80 144 4.0 7.0 0.00 0.05 0.00 84 1011.0
20260831173047 79 184 3.0 8.0 0.00 0.05 0.00 84 1020.7
20260831173022 79 184 3.0 7.0 0.00 0.05 0.00 84 1011.1
20260831171545 79 159 2.0 9.0 0.00 0.05 0.00 83 1020.9
20260831171521 79 159 3.0 8.0 0.00 0.05 0.00 84 1011.2
20260831170052 79 132 4.0 10.0 0.00 0.05 0.00 84 1020.6
20260831170024 79 140 5.0 10.0 0.00 0.05 0.00 84 1011.2
20260831164549 77 165 3.0 8.0 0.00 0.05 0.00 86 1020.5
20260831164523 77 165 3.0 8.0 0.00 0.05 0.00 86 1011.1
20260831163051 77 158 4.0 10.0 0.00 0.05 0.00 87 1020.4
20260831163016 77 156 4.0 9.0 0.00 0.05 0.00 87 1011.0
20260831161552 76 134 1.0 5.0 0.00 0.05 0.00 88 1020.5
20260831161512 76 134 1.0 5.0 0.00 0.05 0.00 89 1011.1
20260831160047 75 175 3.0 8.0 0.00 0.05 0.00 88 1020.5
20260831160009 75 174 4.0 7.0 0.00 0.05 0.00 89 1011.2
20260831154608 74 150 2.0 7.0 0.00 0.05 0.00 90 1020.7
20260831154506 74 148 2.0 7.0 0.00 0.05 0.00 90 1011.4
20260831153053 74 190 1.0 7.0 0.00 0.05 0.00 90 1020.6
20260831153004 74 188 1.0 5.0 0.00 0.05 0.00 91 1011.1
20260831151554 73 155 4.0 9.0 0.00 0.05 0.00 91 1020.2
20260831151502 73 172 4.0 9.0 0.00 0.05 0.00 91 1010.9
20260831150107 72 175 2.0 10.0 0.00 0.05 0.00 92 1010.7
20260831150043 72 175 3.0 10.0 0.00 0.05 0.00 92 1019.9
20260831144600 71 164 2.0 6.0 0.00 0.05 0.00 93 1020.0
20260831144555 71 167 2.0 6.0 0.00 0.05 0.00 94 1010.8
20260831143056 70 171 1.0 8.0 0.00 0.05 0.00 95 1011.0
20260831143050 70 171 2.0 8.0 0.00 0.05 0.00 94 1020.2
20260831141557 70 180 2.0 7.0 0.00 0.05 0.00 95 1010.9
20260831141549 70 159 1.0 9.0 0.00 0.05 0.00 95 1020.2
20260831140048 69 163 4.0 9.0 0.00 0.05 0.00 95 1010.6
20260831140044 69 140 4.0 9.0 0.00 0.05 0.00 95 1019.9
20260831134553 69 146 2.0 7.0 0.00 0.05 0.00 96 1010.6
20260831134546 69 127 2.0 7.0 0.00 0.05 0.00 95 1019.9
20260831133055 69 153 2.0 10.0 0.00 0.05 0.00 96 1019.8
20260831133046 69 153 1.0 10.0 0.00 0.05 0.00 96 1010.5
20260831131554 69 148 2.0 8.0 0.00 0.05 0.00 95 1019.6
20260831131547 69 148 1.0 7.0 0.00 0.05 0.00 96 1010.4
20260831130104 69 118 2.0 7.0 0.00 0.05 0.00 95 1019.7
20260831130046 69 119 3.0 8.0 0.00 0.05 0.00 96 1010.4
20260831124558 68 142 1.0 7.0 0.00 0.05 0.00 95 1019.6
20260831123054 68 152 2.0 9.0 0.00 0.05 0.00 96 1019.5
20260831123043 68 152 1.0 8.0 0.00 0.05 0.00 97 1010.3
20260831121556 68 146 1.0 7.0 0.00 0.05 0.00 96 1019.3
20260831121540 68 146 1.0 7.0 0.00 0.05 0.00 97 1010.3
20260831120054 67 0 2.0 7.0 0.00 0.05 0.00 96 1019.7
20260831120046 67 151 1.0 7.0 0.00 0.05 0.00 97 1010.4
20260831114556 67 147 1.0 5.0 0.00 0.05 0.00 96 1019.4
20260831114547 67 147 1.0 5.0 0.00 0.05 0.00 96 1010.2
20260831113055 68 0 1.0 7.0 0.00 0.05 0.00 95 1019.5
20260831113033 68 151 1.0 6.0 0.00 0.05 0.00 96 1010.3
20260831111553 68 144 1.0 7.0 0.00 0.05 0.00 96 1019.7
20260831111532 68 144 1.0 3.0 0.00 0.05 0.00 96 1010.5
20260831110053 68 152 2.0 5.0 0.00 0.05 0.00 96 1019.7
20260831110033 68 152 1.0 6.0 0.00 0.05 0.00 96 1010.5
20260831104548 68 111 1.0 6.0 0.00 0.05 0.00 96 1019.8
20260831104544 68 114 1.0 6.0 0.00 0.05 0.00 96 1010.6
20260831103055 68 167 0.0 5.0 0.00 0.05 0.00 95 1020.2
20260831103035 68 167 1.0 3.0 0.00 0.05 0.00 96 1010.9
20260831101552 68 134 0.0 8.0 0.00 0.05 0.00 96 1020.1
20260831101531 68 134 0.0 4.0 0.00 0.05 0.00 96 1010.8
20260831100110 68 147 1.0 5.0 0.00 0.05 0.00 96 1020.1
20260831100040 68 147 2.0 5.0 0.00 0.05 0.00 96 1010.9
20260831094542 68 132 1.0 7.0 0.00 0.05 0.00 96 1019.9
20260831094530 68 132 1.0 6.0 0.00 0.05 0.00 97 1010.7
20260831093048 68 0 0.0 5.0 0.00 0.05 0.00 96 1019.9
20260831093037 68 131 0.0 5.0 0.00 0.05 0.00 97 1010.6
20260831091550 68 188 1.0 7.0 0.00 0.05 0.00 96 1019.8
20260831091529 68 188 1.0 7.0 0.00 0.05 0.00 97 1010.6
20260831090043 68 144 0.0 7.0 0.00 0.05 0.00 96 1019.7
20260831090028 68 144 0.0 3.0 0.00 0.05 0.00 97 1010.4
20260831084608 68 144 1.0 4.0 0.00 0.05 0.00 96 1019.7
20260831084528 68 144 1.0 4.0 0.00 0.05 0.00 97 1010.5
20260831083045 68 148 1.0 6.0 0.00 0.05 0.00 96 1019.7
20260831083039 68 148 1.0 6.0 0.00 0.05 0.00 96 1010.5
20260831081554 69 0 1.0 7.0 0.00 0.05 0.00 96 1019.8
20260831081531 69 138 1.0 5.0 0.00 0.05 0.00 96 1010.6
20260831080100 69 123 3.0 8.0 0.00 0.05 0.00 95 1019.7
20260831080026 69 123 4.0 8.0 0.00 0.05 0.00 96 1010.5
20260831074558 69 0 2.0 7.0 0.00 0.05 0.00 95 1020.0
20260831074525 69 164 1.0 7.0 0.00 0.05 0.00 96 1010.8
20260831073048 69 0 2.0 8.0 0.00 0.05 0.00 96 1020.0
20260831073020 69 120 1.0 7.0 0.00 0.05 0.00 96 1010.7
20260831071601 69 159 2.0 8.0 0.00 0.05 0.00 96 1020.2
20260831071527 69 159 2.0 7.0 0.00 0.05 0.00 96 1011.0
20260831070050 69 136 1.0 9.0 0.00 0.05 0.00 96 1020.4
20260831070027 69 136 1.0 9.0 0.00 0.05 0.00 96 1011.2
20260831064543 69 154 3.0 9.0 0.00 0.05 0.00 96 1020.4
20260831064515 69 153 3.0 9.0 0.00 0.05 0.00 97 1011.2
20260831063043 69 163 2.0 10.0 0.00 0.05 0.00 96 1020.7
20260831063013 69 163 3.0 10.0 0.00 0.05 0.00 97 1011.4
20260831061545 69 165 4.0 8.0 0.00 0.05 0.00 96 1021.0
20260831061512 69 165 3.0 8.0 0.00 0.05 0.00 97 1011.7
20260831060100 70 165 4.0 9.0 0.00 0.05 0.00 96 1021.3
20260831060011 70 139 4.0 10.0 0.00 0.05 0.00 96 1012.1
20260831054544 70 142 4.0 9.0 0.00 0.05 0.00 96 1021.4
20260831054509 70 148 5.0 9.0 0.00 0.05 0.00 96 1012.3
20260831053057 70 155 4.0 10.0 0.00 0.05 0.00 96 1021.6
20260831053007 70 157 4.0 10.0 0.00 0.05 0.00 97 1012.4
20260831051544 70 155 2.0 10.0 0.00 0.05 0.00 96 1021.9
20260831051503 70 155 3.0 10.0 0.00 0.05 0.00 97 1012.6
20260831050104 70 171 2.0 9.0 0.00 0.05 0.00 96 1022.3
20260831050001 70 173 2.0 9.0 0.00 0.05 0.00 97 1013.0
20260831044620 70 147 1.0 8.0 0.00 0.06 0.05 96 1012.9
20260831044551 70 147 2.0 8.0 0.00 0.06 0.05 96 1022.2
20260831043059 70 153 3.0 9.0 0.00 0.06 0.05 96 1013.3
20260831043052 70 144 4.0 9.0 0.00 0.06 0.05 96 1022.5
20260831041614 69 151 5.0 10.0 0.00 0.06 0.05 96 1013.3
20260831041553 69 152 2.0 9.0 0.00 0.06 0.05 96 1022.6
20260831040059 69 149 3.0 7.0 0.00 0.06 0.05 96 1013.1
20260831040052 69 147 3.0 10.0 0.00 0.06 0.05 96 1022.5
20260831034604 69 148 4.0 10.0 0.00 0.06 0.05 96 1013.0
20260831034546 69 130 3.0 10.0 0.00 0.06 0.05 96 1022.3
20260831033100 69 159 3.0 9.0 0.00 0.06 0.05 96 1022.3
20260831033058 69 146 3.0 8.0 0.00 0.06 0.05 96 1013.0
20260831031602 69 117 2.0 8.0 0.00 0.06 0.05 96 1013.1
20260831031552 69 0 3.0 8.0 0.00 0.06 0.05 96 1022.4
20260831030100 69 134 2.0 9.0 0.00 0.06 0.05 96 1013.1
20260831030052 69 134 4.0 9.0 0.00 0.06 0.05 96 1022.4
20260831024614 69 131 3.0 10.0 0.00 0.06 0.05 96 1013.2
20260831024548 70 126 2.0 10.0 0.00 0.06 0.05 95 1022.3
20260831023056 70 148 2.0 10.0 0.00 0.06 0.05 96 1013.4
20260831023045 70 179 2.0 10.0 0.00 0.06 0.05 95 1022.6
20260831021556 70 153 2.0 5.0 0.00 0.06 0.05 96 1013.2
20260831021551 69 155 2.0 7.0 0.00 0.06 0.05 95 1022.4
20260831020107 69 114 1.0 6.0 0.00 0.06 0.05 96 1013.0
20260831020052 69 113 1.0 6.0 0.00 0.06 0.05 95 1022.3
20260831014605 69 146 2.0 8.0 0.00 0.07 0.05 96 1013.1
20260831014559 69 167 2.0 8.0 0.00 0.07 0.05 95 1022.2
20260831013054 69 132 0.0 4.0 0.00 0.07 0.05 96 1012.8
20260831011604 69 96 0.0 4.0 0.00 0.07 0.05 96 1012.8
20260831011550 69 96 0.0 4.0 0.00 0.07 0.05 95 1022.0
20260831010053 69 74 1.0 4.0 0.00 0.07 0.05 96 1012.6
20260831004553 69 95 1.0 6.0 0.00 0.07 0.05 95 1012.5
20260831004546 69 94 1.0 6.0 0.00 0.07 0.05 95 1021.7
20260831003103 70 0 1.0 7.0 0.00 0.07 0.05 95 1021.6
20260831003052 70 119 1.0 7.0 0.00 0.07 0.05 95 1012.4
20260831001555 70 112 0.0 4.0 0.00 0.07 0.05 95 1012.8
20260831001549 70 0 0.0 4.0 0.00 0.07 0.05 94 1021.9
20260831000051 70 76 0.0 9.0 0.00 0.07 0.05 94 1012.6
20260831000049 70 0 1.0 9.0 0.00 0.07 0.05 94 1021.8
20260830234608 71 94 0.0 3.0 0.00 0.07 0.05 94 1012.7
20260830234552 71 94 1.0 3.0 0.00 0.07 0.05 93 1021.7
20260830233052 71 111 1.0 8.0 0.00 0.07 0.05 93 1021.7
20260830233049 71 113 1.0 6.0 0.00 0.07 0.05 93 1012.5
20260830231553 71 53 1.0 9.0 0.00 0.07 0.05 93 1021.9
20260830231548 71 53 1.0 9.0 0.00 0.07 0.05 93 1012.7
20260830230052 71 107 1.0 5.0 0.01 0.07 0.05 93 1013.0
20260830230049 71 107 0.0 5.0 0.01 0.07 0.05 93 1022.1
20260830224603 71 92 1.0 5.0 0.01 0.07 0.05 93 1021.6
20260830224550 71 92 2.0 5.0 0.01 0.07 0.05 93 1012.6
20260830223052 72 136 2.0 8.0 0.02 0.07 0.05 92 1021.3
20260830223046 72 136 1.0 8.0 0.02 0.07 0.05 93 1012.3
20260830221547 71 0 0.0 2.0 0.02 0.07 0.05 93 1021.6
20260830221545 71 138 0.0 2.0 0.02 0.07 0.05 94 1012.6
20260830220048 71 113 0.0 6.0 0.04 0.06 0.04 94 1021.1
20260830220045 71 113 1.0 6.0 0.04 0.06 0.04 94 1012.0
20260830214551 71 64 1.0 7.0 0.04 0.06 0.04 94 1020.9
20260830214544 71 63 1.0 5.0 0.04 0.06 0.04 94 1011.9
20260830213054 71 70 0.0 5.0 0.03 0.05 0.03 93 1021.0
20260830213041 71 70 0.0 5.0 0.03 0.05 0.03 94 1012.1
20260830211542 71 138 0.0 3.0 0.03 0.05 0.03 91 1021.5
20260830210101 72 78 1.0 8.0 0.00 0.02 0.00 89 1021.2
20260830210041 72 54 3.0 6.0 0.00 0.02 0.00 89 1012.2
20260830204549 72 120 1.0 8.0 0.00 0.02 0.00 89 1021.1
20260830204541 72 124 2.0 8.0 0.00 0.02 0.00 89 1012.2
20260830203046 72 0 2.0 7.0 0.00 0.02 0.00 88 1021.7
20260830203040 72 96 1.0 6.0 0.00 0.02 0.00 89 1012.5
20260830201604 72 128 3.0 9.0 0.00 0.02 0.00 88 1012.8
20260830201556 72 136 3.0 9.0 0.00 0.02 0.00 88 1021.9
20260830200105 72 130 1.0 7.0 0.00 0.02 0.00 90 1022.0
20260830200036 72 130 2.0 4.0 0.00 0.02 0.00 90 1013.1
20260830194556 71 0 0.0 6.0 0.00 0.09 0.00 90 1022.2
20260830194535 71 149 0.0 5.0 0.00 0.10 0.00 91 1013.3
20260830193044 71 9 1.0 4.0 0.00 0.09 0.00 90 1022.1
20260830193040 71 22 1.0 4.0 0.00 0.10 0.00 91 1013.3
20260830191557 71 0 0.0 7.0 0.00 0.09 0.00 91 1022.3
20260830191536 71 124 1.0 7.0 0.00 0.10 0.00 91 1013.3
20260830190044 71 168 1.0 6.0 0.00 0.09 0.00 91 1022.2
20260830190037 71 171 1.0 6.0 0.00 0.10 0.00 91 1013.4